Overview Statistics Trail Chart Weather Telemetry Raw packets
 

This is the latest recevied weather packets stored in our database for station/object KD0MAC. If no packets are shown the sender has not sent any weather packets the latest 10 day(s).

<< 77 78 79 80 81 82 83 >>
Time Temp. Humidity Pressure Rain* Wind** Luminosity Snow
1788204131 33.89° C 48% 1015.6 hPa 0 mm - 526 W/m² -
1788203830 33.89° C 47% 1015.6 hPa 0 mm - 553 W/m² -
1788203530 33.33° C 46% 1015.6 hPa 0 mm - 524 W/m² -
1788203231 33.33° C 49% 1015.6 hPa 0 mm - 551 W/m² -
1788202930 33.33° C 45% 1015.6 hPa 0 mm - 553 W/m² -
1788202629 32.78° C 46% 1015.6 hPa 0 mm - 551 W/m² -
1788202330 32.78° C 49% 1015.6 hPa 0 mm - 553 W/m² -
1788202029 32.78° C 47% 1015.6 hPa 0 mm - 552 W/m² -
1788201729 32.78° C 49% 1015.6 hPa 0 mm - 556 W/m² -
1788201431 32.78° C 45% 1015.6 hPa 0 mm - 550 W/m² -
1788201131 32.78° C 47% 1015.6 hPa 0 mm - 556 W/m² -
1788200830 32.22° C 48% 1015.6 hPa 0 mm - 554 W/m² -
1788200530 32.22° C 49% 1015.6 hPa 0 mm - 554 W/m² -
1788200230 32.22° C 48% 1015.6 hPa 0 mm - 549 W/m² -
1788199930 32.22° C 54% 1015.6 hPa 0 mm - 550 W/m² -
1788199631 31.67° C 53% 1015.9 hPa 0 mm - 546 W/m² -
1788199330 31.67° C 51% 1015.9 hPa 0 mm - 541 W/m² -
1788199029 31.11° C 52% 1015.9 hPa 0 mm - 536 W/m² -
1788198730 31.11° C 53% 1015.9 hPa 0 mm - 535 W/m² -
1788198429 31.11° C 53% 1015.9 hPa 0 mm - 529 W/m² -
1788198130 31.67° C 52% 1016.3 hPa 0 mm - 527 W/m² -
1788197830 31.11° C 57% 1016.3 hPa 0 mm - 521 W/m² -
1788197530 30.56° C 53% 1016.3 hPa 0 mm - 516 W/m² -
1788197230 30.56° C 54% 1016.3 hPa 0 mm - 510 W/m² -
1788196941 30.56° C 57% 1016.3 hPa 0 mm - 509 W/m² -

* Rain latest hour (hover to see other rain measurements)
** Current wind speed in m/s (hover to see current wind gust speed)